• In Netherlands
  • List of Countries
  • For 7 days
  • Water Temperature
  • Satellite Maps
  • Weather Map
  • Weather Widgets
  • user-avatar
    Login

    Hourly Weather Nuernberg

    Today, 21 June, Thursday

    Time Temperature Precipitation Wind Pressure Humidity
    00:00 +21°C° 0 mm 1 mps 736 mmHg 87%
    01:00 +20°C° 0 mm 1 mps 736 mmHg 89%
    02:00 +20°C° 0 mm 1 mps 735 mmHg 90%
    03:00 +19°C° 0 mm 1 mps 735 mmHg 91%
    04:00 +19°C° 0 mm 1 mps 734 mmHg 92%
    05:00 +20°C° 0 mm 1 mps 734 mmHg 88%
    06:00 +21°C° 0 mm 2 mps 734 mmHg 83%
    07:00 +23°C° 0 mm 2 mps 734 mmHg 79%
    08:00 +24°C° 0.2 mm 3 mps 734 mmHg 75%
    09:00 +25°C° 0.2 mm 4 mps 734 mmHg 71%
    10:00 +26°C° 0.2 mm 5 mps 733 mmHg 66%
    11:00 +27°C° 0.1 mm 5 mps 733 mmHg 62%
    12:00 +27°C° 0.1 mm 6 mps 733 mmHg 57%
    13:00 +27°C° 0.1 mm 7 mps 733 mmHg 53%
    14:00 +26°C° 0.1 mm 7 mps 734 mmHg 57%
    15:00 +23°C° 0.1 mm 7 mps 734 mmHg 61%
    16:00 +22°C° 0.1 mm 7 mps 734 mmHg 65%
    17:00 +20°C° 0 mm 6 mps 735 mmHg 64%
    18:00 +19°C° 0 mm 5 mps 735 mmHg 63%
    19:00 +17°C° 0 mm 4 mps 736 mmHg 63%
    20:00 +15°C° 0 mm 4 mps 736 mmHg 63%
    21:00 +13°C° 0 mm 3 mps 737 mmHg 64%
    22:00 +12°C° 0 mm 3 mps 738 mmHg 65%
    23:00 +12°C° 0 mm 2 mps 738 mmHg 69%

    Tomorrow, 22 June, Friday

    Time Temperature Precipitation Wind Pressure Humidity
    00:00 +10°C° 0 mm 2 mps 739 mmHg 72%
    01:00 +9°C° 0 mm 2 mps 739 mmHg 76%
    02:00 +8°C° 0 mm 2 mps 739 mmHg 79%
    03:00 +8°C° 0 mm 2 mps 739 mmHg 81%
    04:00 +7°C° 0 mm 2 mps 739 mmHg 84%
    05:00 +8°C° 0 mm 3 mps 740 mmHg 79%
    06:00 +9°C° 0 mm 3 mps 740 mmHg 74%
    07:00 +10°C° 0 mm 4 mps 740 mmHg 69%
    08:00 +11°C° 0 mm 4 mps 740 mmHg 67%
    09:00 +12°C° 0 mm 5 mps 740 mmHg 65%
    10:00 +13°C° 0 mm 5 mps 740 mmHg 63%
    11:00 +13°C° 0.1 mm 5 mps 739 mmHg 63%
    12:00 +14°C° 0.1 mm 5 mps 739 mmHg 63%
    13:00 +14°C° 0.1 mm 5 mps 739 mmHg 63%
    14:00 +15°C° 0.2 mm 5 mps 739 mmHg 62%
    15:00 +15°C° 0.2 mm 5 mps 739 mmHg 61%
    16:00 +16°C° 0.2 mm 5 mps 739 mmHg 60%
    17:00 +15°C° 0.1 mm 4 mps 739 mmHg 64%
    18:00 +15°C° 0.1 mm 4 mps 739 mmHg 68%
    19:00 +14°C° 0.1 mm 3 mps 739 mmHg 72%
    20:00 +13°C° 0 mm 3 mps 739 mmHg 77%
    21:00 +12°C° 0 mm 2 mps 740 mmHg 83%
    22:00 +10°C° 0 mm 2 mps 740 mmHg 89%
    23:00 +9°C° 0 mm 2 mps 740 mmHg 90%

    Day after tomorrow, 23 June, Saturday

    Time Temperature Precipitation Wind Pressure Humidity
    00:00 +9°C° 0 mm 2 mps 740 mmHg 92%
    01:00 +8°C° 0 mm 2 mps 740 mmHg 94%
    02:00 +8°C° 0 mm 2 mps 740 mmHg 95%
    03:00 +8°C° 0 mm 2 mps 740 mmHg 95%
    04:00 +7°C° 0 mm 2 mps 740 mmHg 96%
    05:00 +8°C° 0 mm 2 mps 740 mmHg 91%
    06:00 +9°C° 0 mm 2 mps 740 mmHg 87%
    07:00 +12°C° 0 mm 2 mps 740 mmHg 83%
    08:00 +12°C° 0 mm 3 mps 740 mmHg 76%
    09:00 +13°C° 0 mm 3 mps 740 mmHg 70%
    10:00 +14°C° 0 mm 3 mps 740 mmHg 63%
    11:00 +16°C° 0 mm 3 mps 740 mmHg 58%
    12:00 +17°C° 0 mm 4 mps 740 mmHg 53%
    13:00 +19°C° 0 mm 4 mps 740 mmHg 49%
    14:00 +19°C° 0 mm 4 mps 740 mmHg 50%
    15:00 +19°C° 0 mm 4 mps 739 mmHg 50%
    16:00 +19°C° 0 mm 4 mps 739 mmHg 51%
    17:00 +18°C° 0 mm 3 mps 739 mmHg 56%
    18:00 +17°C° 0 mm 3 mps 739 mmHg 61%
    19:00 +16°C° 0 mm 3 mps 739 mmHg 66%
    20:00 +15°C° 0 mm 2 mps 739 mmHg 70%
    21:00 +13°C° 0 mm 2 mps 739 mmHg 75%
    22:00 +12°C° 0 mm 1 mps 740 mmHg 80%
    23:00 +12°C° 0 mm 1 mps 740 mmHg 80%

    24 June, Sunday

    Time Temperature Precipitation Wind Pressure Humidity
    00:00 +12°C° 0 mm 1 mps 739 mmHg 81%
    01:00 +12°C° 0 mm 1 mps 739 mmHg 81%
    02:00 +12°C° 0 mm 1 mps 739 mmHg 82%
    03:00 +12°C° 0 mm 1 mps 739 mmHg 83%
    04:00 +12°C° 0 mm 1 mps 739 mmHg 84%
    05:00 +12°C° 0 mm 1 mps 739 mmHg 83%
    06:00 +13°C° 0 mm 1 mps 739 mmHg 81%
    07:00 +14°C° 0 mm 1 mps 739 mmHg 80%
    08:00 +15°C° 0 mm 2 mps 739 mmHg 75%
    09:00 +16°C° 0 mm 2 mps 739 mmHg 71%
    10:00 +17°C° 0 mm 2 mps 740 mmHg 67%
    11:00 +18°C° 0.1 mm 2 mps 739 mmHg 65%
    12:00 +18°C° 0.1 mm 2 mps 739 mmHg 63%
    13:00 +19°C° 0.1 mm 2 mps 739 mmHg 61%
    14:00 +19°C° 0.1 mm 3 mps 739 mmHg 61%
    15:00 +19°C° 0.1 mm 3 mps 739 mmHg 61%
    16:00 +20°C° 0.1 mm 3 mps 739 mmHg 62%
    17:00 +19°C° 0.1 mm 3 mps 739 mmHg 65%
    18:00 +18°C° 0.1 mm 2 mps 739 mmHg 69%
    19:00 +18°C° 0.1 mm 2 mps 739 mmHg 73%
    20:00 +16°C° 0 mm 2 mps 739 mmHg 79%
    21:00 +14°C° 0 mm 2 mps 740 mmHg 84%
    22:00 +13°C° 0 mm 2 mps 740 mmHg 89%
    23:00 +12°C° 0 mm 1 mps 740 mmHg 91%

    25 June, Monday

    Time Temperature Precipitation Wind Pressure Humidity
    00:00 +12°C° 0 mm 1 mps 740 mmHg 92%
    01:00 +11°C° 0 mm 1 mps 740 mmHg 94%
    02:00 +11°C° 0 mm 1 mps 740 mmHg 94%
    03:00 +11°C° 0 mm 1 mps 740 mmHg 94%
    04:00 +10°C° 0 mm 1 mps 740 mmHg 95%
    05:00 +12°C° 0 mm 1 mps 740 mmHg 91%
    06:00 +13°C° 0 mm 1 mps 740 mmHg 86%
    07:00 +15°C° 0 mm 1 mps 740 mmHg 82%
    08:00 +16°C° 0 mm 1 mps 740 mmHg 75%
    09:00 +18°C° 0 mm 2 mps 740 mmHg 68%
    10:00 +19°C° 0 mm 2 mps 740 mmHg 60%
    11:00 +20°C° 0 mm 2 mps 740 mmHg 59%
    12:00 +21°C° 0 mm 2 mps 740 mmHg 57%
    13:00 +21°C° 0 mm 2 mps 740 mmHg 56%
    14:00 +21°C° 0 mm 2 mps 740 mmHg 56%
    15:00 +21°C° 0 mm 2 mps 740 mmHg 56%
    16:00 +22°C° 0 mm 3 mps 739 mmHg 55%
    17:00 +21°C° 0 mm 2 mps 739 mmHg 60%
    18:00 +20°C° 0 mm 2 mps 739 mmHg 65%
    19:00 +20°C° 0 mm 2 mps 739 mmHg 69%
    20:00 +18°C° 0 mm 2 mps 739 mmHg 75%
    21:00 +16°C° 0 mm 2 mps 740 mmHg 80%
    22:00 +15°C° 0 mm 2 mps 740 mmHg 86%
    23:00 +14°C° 0 mm 2 mps 740 mmHg 88%

    26 June, Tuesday

    Time Temperature Precipitation Wind Pressure Humidity
    00:00 +14°C° 0 mm 2 mps 740 mmHg 90%
    01:00 +13°C° 0 mm 2 mps 740 mmHg 92%
    02:00 +13°C° 0 mm 2 mps 740 mmHg 92%
    03:00 +13°C° 0 mm 2 mps 740 mmHg 92%
    04:00 +12°C° 0 mm 2 mps 740 mmHg 93%
    05:00 +14°C° 0 mm 2 mps 740 mmHg 87%
    06:00 +15°C° 0 mm 2 mps 740 mmHg 81%
    07:00 +17°C° 0 mm 2 mps 740 mmHg 75%
    08:00 +19°C° 0 mm 3 mps 740 mmHg 67%
    09:00 +21°C° 0 mm 3 mps 740 mmHg 59%
    10:00 +24°C° 0 mm 3 mps 740 mmHg 51%
    11:00 +25°C° 0 mm 3 mps 740 mmHg 48%
    12:00 +26°C° 0 mm 3 mps 740 mmHg 45%
    13:00 +27°C° 0 mm 3 mps 739 mmHg 42%
    14:00 +27°C° 0 mm 3 mps 739 mmHg 43%
    15:00 +27°C° 0 mm 3 mps 739 mmHg 43%
    16:00 +28°C° 0 mm 4 mps 739 mmHg 43%
    17:00 +26°C° 0 mm 3 mps 739 mmHg 50%
    18:00 +25°C° 0 mm 3 mps 739 mmHg 56%
    19:00 +24°C° 0 mm 3 mps 739 mmHg 62%
    20:00 +21°C° 0 mm 3 mps 739 mmHg 67%
    21:00 +20°C° 0 mm 3 mps 739 mmHg 71%
    22:00 +18°C° 0 mm 3 mps 740 mmHg 76%
    23:00 +17°C° 0 mm 3 mps 740 mmHg 79%
    Show more